Torna al catalogo

STARLINK-2364

AttivoComunicazioniVLEO
NORAD 47904·PAYLOAD·🇺🇸 United States

Lanciato Mar 14, 2021 da Cape Canaveral Space Force Station

Loading…

Prossimi Passaggi (prossime 24 ore)

TLE

AggiornatoSource: CelesTrak SupGP

Epoca: Sep 14, 2026, 20:20 UTC

1 47904C 21021AW  26257.84770833 -.00008442  00000+0 -27163-3 0  2570
2 47904  53.1575  94.9618 0001195  81.4846 331.4105 15.31689387    15

Traccia STARLINK-2364 in tempo reale con AllMySat

Download on the App Store